TimeMST,TemperatureF,Dew PointF,Humidity,Sea Level PressureIn,VisibilityMPH,Wind Direction,Wind SpeedMPH,Gust SpeedMPH,PrecipitationIn,Events,Conditions,WindDirDegrees,DateUTC
12:53 AM,53.1,34.0,48,30.05,10.0,NNE,3.5,-,N/A,,Clear,20,2011-10-09 07:53:00
1:53 AM,53.1,35.1,50,30.04,10.0,North,5.8,-,N/A,,Scattered Clouds,10,2011-10-09 08:53:00
2:53 AM,53.1,32.0,45,30.04,10.0,North,10.4,-,N/A,,Partly Cloudy,360,2011-10-09 09:53:00
3:53 AM,52.0,33.1,49,30.04,10.0,NNW,5.8,-,N/A,,Clear,340,2011-10-09 10:53:00
4:53 AM,48.9,34.0,56,30.05,10.0,Calm,Calm,-,N/A,,Clear,0,2011-10-09 11:53:00
5:53 AM,46.4,33.8,62,30.15,5.0,SW,3.5,-,N/A,,Haze,230,2011-10-09 12:53:00
6:53 AM,46.9,34.0,61,30.07,10.0,Calm,Calm,-,N/A,,Clear,0,2011-10-09 13:53:00
7:53 AM,52.0,35.1,53,30.07,10.0,Calm,Calm,-,N/A,,Clear,0,2011-10-09 14:53:00
8:53 AM,55.0,35.1,47,30.08,10.0,Calm,Calm,-,N/A,,Clear,0,2011-10-09 15:53:00
9:53 AM,55.9,35.1,45,30.08,10.0,Calm,Calm,-,N/A,,Clear,0,2011-10-09 16:53:00
10:53 AM,59.0,33.1,38,30.05,10.0,Calm,Calm,-,N/A,,Clear,0,2011-10-09 17:53:00
11:53 AM,60.1,32.0,35,30.04,10.0,NW,6.9,-,N/A,,Clear,320,2011-10-09 18:53:00
1:53 PM,62.1,28.9,29,29.98,10.0,NNW,6.9,-,N/A,,Clear,340,2011-10-09 20:53:00
2:53 PM,64.0,28.9,27,29.97,10.0,North,8.1,-,N/A,,Clear,10,2011-10-09 21:53:00
3:53 PM,63.0,28.0,27,29.96,10.0,NNE,5.8,-,N/A,,Clear,20,2011-10-09 22:53:00
4:53 PM,63.0,24.1,23,29.96,10.0,North,5.8,-,N/A,,Clear,10,2011-10-09 23:53:00
5:53 PM,60.1,25.0,26,29.96,10.0,Calm,Calm,-,N/A,,Clear,0,2011-10-10 00:53:00
6:53 PM,55.9,30.0,37,29.97,10.0,Calm,Calm,-,N/A,,Clear,0,2011-10-10 01:53:00
7:53 PM,54.0,30.0,40,29.98,10.0,Calm,Calm,-,N/A,,Clear,0,2011-10-10 02:53:00
8:53 PM,53.1,30.0,41,29.98,10.0,Calm,Calm,-,N/A,,Clear,0,2011-10-10 03:53:00
9:53 PM,52.0,28.9,41,29.98,10.0,Calm,Calm,-,N/A,,Clear,0,2011-10-10 04:53:00
10:53 PM,52.0,28.9,41,29.97,10.0,South,3.5,-,N/A,,Clear,170,2011-10-10 05:53:00
11:53 PM,52.0,30.0,43,29.97,10.0,South,3.5,-,N/A,,Clear,170,2011-10-10 06:53:00